TES                     
1 26957U 01049A   19264.86616114  .00000044  00000-0  66146-5 0  9994
2 26957  97.7048  17.9624 0039718  72.3607 288.1969 15.11236971983232
PROBA-1                 
1 26958U 01049B   19265.40500566 -.00000433  00000-0 -31807-4 0  9998
2 26958  97.6775 219.7435 0074297  79.3794 281.5794 14.95406020975134
BIRD 2                  
1 26959U 01049C   19265.08917825  .00000886  00000-0  26977-4 0  9995
2 26959  97.8669 274.9519 0007736 343.2034  16.8952 15.37015642993249
PSLV R/B                
1 26960U 01049D   19264.83911949  .00000626  00000-0  43938-4 0  9998
2 26960  97.7885 248.9835 0053460 236.5803 123.0306 15.07968453978606
PSLV DEB                
1 27089U 01049AH  19265.06784786  .00000020  00000-0  82174-5 0  9998
2 27089  97.8855 200.1926 0059726 276.7334 145.5747 14.89975108962441
PSLV DEB                
1 27097U 01049AR  19265.35696056  .00007053  00000-0  15930-3 0  9998
2 27097  97.5548  57.8501 0031294 117.3340 243.1099 15.43007420970087
PSLV DEB                
1 27119U 01049BP  19264.48879390  .00000470  00000-0  31369-4 0  9991
2 27119  97.8333 275.1075 0031810 298.4231  61.3794 15.11823887968034
PSLV DEB                
1 27121U 01049BR  19264.71146574  .00001855  00000-0  95532-4 0  9991
2 27121  97.2451 303.9815 0038985 292.9202  66.7919 15.16971651960747
PSLV DEB                
1 27123U 01049BT  19264.47370336  .00000111  00000-0  28642-4 0  9993
2 27123  97.3297  76.1824 0045515  51.9991 308.5311 14.64034643945774
PSLV DEB                
1 27124U 01049BU  19265.16774514  .00000135  00000-0  24957-4 0  9998
2 27124  98.1381 239.0539 0038008 105.3714 316.0834 14.80090346954951
PSLV DEB                
1 27126U 01049BW  19264.78942709  .00000302  00000-0  37155-4 0  9990
2 27126  98.1498 192.2515 0043073  50.5753   2.2684 14.89995286959170
PSLV DEB                
1 27127U 01049BX  19264.58937216  .00000431  00000-0  42074-4 0  9995
2 27127  97.5341 253.5326 0035730  73.6209  48.1811 14.96819321961262
PSLV DEB                
1 27128U 01049BY  19264.85300176  .00001688  00000-0  99419-4 0  9995
2 27128  97.6259  32.1231 0053902 246.0556 113.5024 15.11850084962173
PSLV DEB                
1 27129U 01049BZ  19264.99145109  .00000499  00000-0  57209-4 0  9994
2 27129  97.9589 263.3441 0037556 207.2588 171.5436 14.90034736954339
PSLV DEB                
1 27130U 01049CA  19265.51455543  .00000084  00000-0  19137-4 0  9999
2 27130  98.1390 230.0276 0018100  93.0715  23.7742 14.77734311954641
PSLV DEB                
1 27132U 01049CC  19265.50457418  .00000009  00000-0  50342-5 0  9994
2 27132  97.7842 251.4518 0045205 249.3135 236.3240 15.07882972978477
PSLV DEB                
1 27133U 01049CD  19264.14093296  .00000048  00000-0  17690-4 0  9995
2 27133  97.7066 326.9597 0046115 164.3406 195.9236 14.63462380945993
PSLV DEB                
1 27136U 01049CG  19265.50415843  .00000146  00000-0  21659-4 0  9994
2 27136  98.0662 250.9745 0041161 185.0147 292.7366 14.88997756977432
PSLV DEB                
1 27141U 01049CM  19264.51528881  .00000094  00000-0  18752-4 0  9999
2 27141  98.0568 228.0410 0053013 309.8847 165.5713 14.81994846956979
PSLV DEB                
1 27142U 01049CN  19265.21473685  .00000331  00000-0  14202-3 0  9998
2 27142  97.3967 343.6174 0286549 240.7176 116.5081 14.10170751912133
PSLV DEB                
1 27146U 01049CS  19264.51499922  .00000254  00000-0  42732-4 0  9990
2 27146  98.2230 251.3431 0050325 331.8544 141.2264 14.77610857951818
PSLV DEB                
1 27147U 01049CT  19265.12529819  .00001552  00000-0  10385-3 0  9998
2 27147  97.4997 292.7008 0016655 318.4790  75.9195 15.08286445976406
PSLV DEB                
1 27150U 01049CW  19265.12284260  .00000962  00000-0  52058-4 0  9998
2 27150  97.8565 311.0629 0032909 110.2132 250.2644 15.16827584  9731
PSLV DEB                
1 27151U 01049CX  19265.49408390  .00000769  00000-0  53675-4 0  9992
2 27151  97.7772 258.7153 0036143   9.6302 109.0133 15.07984750968034
PSLV DEB                
1 27152U 01049CY  19264.52794421  .00000240  00000-0  36159-4 0  9991
2 27152  98.1691 257.6031 0036704 154.9986 205.3015 14.83093881954570
PSLV DEB                
1 27153U 01049CZ  19265.45158709  .00000243  00000-0  28322-4 0  9994
2 27153  98.0186 260.1777 0040259 111.3997 249.1524 14.93807473961260
PSLV DEB                
1 27160U 01049DG  19264.42619306  .00000043  00000-0  16357-4 0  9996
2 27160  98.2093 213.2253 0049386  81.1103  47.3406 14.67705445949987
PSLV DEB                
1 27216U 01049FL  19263.87557802  .00001678  00000-0  12853-3 0  9999
2 27216  98.1996 230.7534 0032069 294.0226 127.9614 15.03028414961511
PSLV DEB                
1 27218U 01049FN  19265.11942507  .00000881  00000-0  10821-3 0  9998
2 27218  99.0464 114.5227 0244861 357.0942   2.8823 14.67422436934098
PSLV DEB                
1 27226U 01049FW  19265.46613149  .00000481  00000-0  51529-4 0  9999
2 27226  97.9525 253.6695 0025092 217.3639 142.5835 14.93190973958964
PSLV DEB                
1 27255U 01049HB  19265.49538803  .00000441  00000-0  51494-4 0  9994
2 27255  97.8907 243.0930 0042203 312.3495 173.4306 14.89699861958201
PSLV DEB                
1 27267U 01049HP  19264.97800430  .00000376  00000-0  44908-4 0  9996
2 27267  98.0744 265.5360 0045572  30.4697 329.9153 14.89676075956844
PSLV DEB                
1 27305U 01049KB  19264.87548142  .00000114  00000-0  26492-4 0  9995
2 27305  98.2395 229.9447 0045365  41.0438  11.6157 14.71752618951216
PSLV DEB                
1 27353U 01049MA  19265.45496238  .00000904  00000-0  56701-4 0  9994
2 27353  97.6737 269.7306 0023377 188.9725 171.1090 15.11720859961752
PSLV DEB                
1 27530U 01049MV  19265.24337258  .00002178  00000-0  58530-4 0  9991
2 27530  97.6696  60.4882 0026220 195.4997 164.5447 15.38796091960405
PSLV DEB                
1 27538U 01049MW  19264.90035959  .00000481  00000-0  32668-4 0  9993
2 27538  97.7164 247.4906 0042705 172.3839 187.8049 15.10617357958188
PSLV DEB                
1 27580U 01049MY  19264.68834045  .00000039  00000-0  14252-4 0  9996
2 27580  98.1237 218.9951 0045681 253.5069 106.1116 14.73064724923865
PSLV DEB                
1 27582U 01049NA  19264.52757026  .00000248  00000-0  40430-4 0  9993
2 27582  98.2481 177.7836 0055252  86.6080 274.1448 14.79041617927158
PSLV DEB                
1 27583U 01049NB  19264.27235160  .00001500  00000-0  80762-4 0  9990
2 27583  97.6031 277.4491 0012544 270.8367 146.3000 15.16355336937399
PSLV DEB                
1 27585U 01049ND  19264.58445878  .00000112  00000-0  24289-4 0  9995
2 27585  98.0945 203.0472 0060935 266.8716  92.5519 14.74899331938405
PSLV DEB                
1 27586U 01049NE  19265.45664443  .00000878  00000-0  43207-4 0  9994
2 27586  97.2800 262.6599 0044421 334.9696  24.9385 15.19772235947069
PSLV DEB                
1 27653U 01049NQ  19263.16687588  .00000105  00000-0  21494-4 0  9997
2 27653  98.1351 233.6138 0063813 164.2836 196.0375 14.78456308925710
PSLV DEB                
1 27655U 01049NS  19265.02646973  .00000410  00000-0  11428-3 0  9993
2 27655  97.2347 106.9801 0177695 140.0224 221.4210 14.41427235905809
PSLV DEB                
1 27657U 01049NU  19264.30701567 -.00000008  00000-0  45166-5 0  9998
2 27657  97.9419 283.5848 0034157 286.0238 129.7220 15.01226112935781
PSLV DEB                
1 28429U 01049NP  19264.27145431  .00001670  00000-0  82331-4 0  9993
2 28429  97.3857 285.6269 0012891 201.8506 158.2180 15.19242717870107
PSLV DEB                
1 28430U 01049NW  19262.46749145  .00000176  00000-0  16970-4 0  9992
2 28430  97.6633 248.4722 0034669 200.5296 159.4539 15.04426147886028
PSLV DEB                
1 28432U 01049NY  19263.39048967  .00000316  00000-0  60139-4 0  9993
2 28432  97.6912 312.9184 0076097  24.3999 336.0779 14.68494469867087
PSLV DEB                
1 28850U 01049PC  19263.91555840  .00003280  00000-0  11966-3 0  9994
2 28850  97.5965 298.4761 0012977 170.1900 189.9595 15.28826184830267
PSLV DEB                
1 28851U 01049PD  19264.80608172  .00000822  00000-0  82771-4 0  9993
2 28851  97.9696 262.4990 0039226 334.7918  25.1386 14.93540380818886
PSLV DEB                
1 28852U 01049PE  19263.12992223  .00000033  00000-0  13455-4 0  9998
2 28852  98.1457 218.4195 0043435 257.4880 166.4825 14.72965014874969
PSLV DEB                
1 28853U 01049PF  19264.13070780  .00000236  00000-0  35181-4 0  9991
2 28853  98.0519 238.6482 0037567  47.2738  14.9135 14.83554915839628
PSLV DEB                
1 28855U 01049PH  19264.13196664  .00000257  00000-0  30102-4 0  9994
2 28855  97.7841 246.3013 0001359  68.0596 292.0767 14.93119307931843
PSLV DEB                
1 28859U 01049PM  19265.26526296  .00001108  00000-0  68099-4 0  9993
2 28859  97.7102 278.5936 0016972 291.4025  68.5394 15.12125867886799
PSLV DEB                
1 29104U 01049PN  19261.81491330  .00002199  00000-0  97245-4 0  9990
2 29104  97.5015 276.4920 0018919  63.0860 297.2306 15.22623006343170
PSLV DEB                
1 34221U 01049PR  19264.27213103  .00000228  00000-0  22694-4 0  9996
2 34221  98.5647 278.9144 0070814  29.3409 331.1759 15.01254993945573
PSLV DEB                
1 35339U 01049PX  19265.41139150  .00000154  00000-0  56726-4 0  9994
2 35339  98.1441  74.1870 0185467  21.0773 339.7930 14.36075947885124
PSLV DEB                
1 35341U 01049PZ  19263.92727500  .00000567  00000-0  75787-4 0  9999
2 35341  97.8585 171.9453 0034902  11.0479 349.1493 14.82927956885209
PSLV DEB                
1 35342U 01049QA  19263.18046161  .00000630  00000-0  32226-3 0  9996
2 35342  98.2650  53.3530 0363134 296.2690  60.1582 13.89754800767694
PSLV DEB                
1 35344U 01049QC  19263.37853333  .00000320  00000-0  67953-4 0  9998
2 35344  97.9724 324.4811 0053344 214.8210 144.9499 14.64732170801159
PSLV DEB                
1 35345U 01049QD  19260.78098192  .00000621  00000-0  12904-3 0  9994
2 35345  98.1117 243.8899 0064921   0.9666 359.1649 14.62338280822490
PSLV DEB                
1 35346U 01049QE  19263.27560912  .00000518  00000-0  14984-3 0  9991
2 35346  98.9107 283.8130 0040170  44.4586 315.9818 14.48511344904806
PSLV DEB                
1 35347U 01049QF  19265.48618533  .00021251  00000-0  42791-3 0  9994
2 35347  98.3930 282.6671 0008806  33.3854 326.7946 15.46588448872441
PSLV DEB                
1 35348U 01049QG  19264.14469484  .00000571  00000-0  10595-3 0  9995
2 35348  98.0440 248.4724 0052702 173.8379 186.3486 14.68130474922552
PSLV DEB                
1 35349U 01049QH  19263.28464552  .00001912  00000-0  86919-4 0  9995
2 35349  97.5348 277.5365 0020814 114.1161 246.2255 15.21807196708918
PSLV DEB                
1 35350U 01049QJ  19259.14021754  .00000151  00000-0  52808-4 0  9994
2 35350  98.5070 228.1935 0073423 322.5444  37.0644 14.47441056847953
PSLV DEB                
1 35351U 01049QK  19264.02404035  .00000411  00000-0  13557-3 0  9991
2 35351  98.7478 182.8682 0002595 194.1417 165.9700 14.43405442850029
PSLV DEB                
1 35536U 01049QL  19259.50952575  .00000161  00000-0  11139-3 0  9996
2 35536  98.6610 142.3654 0428220 131.0271 232.8734 13.72540045808187